Location: Erlau
(48.8333°N, 10.1167°E)
Time: 05:37:03
(UTC+00:00)

Daily predictions for brighter satellites

Satellite Brightness Start Highest point End
(mag) Time Altitude Azimuth Time Altitude Azimuth Time Altitude Azimuth
SL-16 R/B 4.3 00:16:47 27° NNE 00:16:47 27° NNE 00:20:00 10° N
ADEOS II 4.4 00:40:23 10° NE 00:42:13 19° NE 00:42:13 19° NE
ATLAS CENTAUR R/B 4.3 01:36:30 15° E 01:36:30 15° E 01:38:31 10° ENE
Resurs 1-4 Rocket 3.8 01:35:03 10° N 01:37:26 27° N 01:37:26 27° N
Cosmos 1697 Rocket 3.6 01:37:01 10° NNW 01:45:23 25° ESE 01:47:52 10° SE
CZ-2D R/B 3.7 01:40:19 10° N 01:42:56 29° N 01:42:56 29° N
ALOS 4.2 01:49:02 10° NE 01:52:49 24° E 01:53:04 24° E
IDEFIX/ARIANE 42P 3.8 01:48:37 10° NNE 01:51:47 38° N 01:51:47 38° N
SL-16 R/B 4.2 02:01:53 20° NW 02:01:53 20° NW 02:03:49 10° NNW
CZ-2C R/B 4.4 01:54:02 10° NE 01:57:56 23° E 01:59:29 19° ESE
IRS-1D 4.2 01:58:20 10° NNE 02:02:58 54° ENE 02:02:58 54° ENE
Lacrosse 4 Rocket 4.4 02:19:18 10° N 02:21:59 16° NE 02:24:41 10° ENE
Meteor 2-11 Rocket 4.5 02:23:15 64° NW 02:23:15 64° NW 02:28:47 10° N
Cosmos 1980 Rocket 3.1 02:17:51 10° NNW 02:23:17 47° NE 02:28:40 10° SE
ADEOS II 3.2 02:19:49 10° N 02:23:08 34° NNW 02:23:08 34° NNW
Cosmos 1536 4.5 02:22:55 10° N 02:26:38 33° ENE 02:28:18 23° ESE
Cosmos 1151 Rocket 3.9 02:28:11 47° ENE 02:28:11 47° ENE 02:31:39 10° NNE
Cosmos 1346 Rocket 4.2 02:30:39 36° E 02:30:39 36° E 02:34:10 10° NNE
Helios 1B rocket 4.3 02:27:03 10° NE 02:30:33 27° E 02:31:46 23° SE
Cosmos 2369 4.2 02:28:57 10° NNW 02:34:35 60° ENE 02:40:10 10° SE
USA 305 3.8 02:36:49 46° ENE 02:36:49 46° ENE 02:39:48 10° ENE
ARIANE 5 R/B 4.1 02:34:32 10° NNE 02:38:59 31° E 02:43:24 10° SSE
SL-16 R/B 4.4 02:38:33 10° N 02:43:08 24° NE 02:47:42 10° E
ATLAS 5 CENTAUR R/B 4.1 02:42:00 12° NNW 02:43:41 14° N 02:46:13 10° NNE
Cosmos 676 Rocket 4.0 02:43:09 10° NNW 02:48:24 81° ENE 02:53:39 10° SSE
Cosmos 1515 4.3 02:51:55 54° NE 02:51:55 54° NE 02:55:03 10° NNE
Cosmos 1470 Rocket 4.2 02:49:51 10° N 02:54:07 53° ENE 02:58:22 10° SSE
Meteor 1-10 Rocket 4.2 02:53:16 39° S 02:55:25 84° E 03:01:05 10° NNE
Cosmos 1624 Rocket 4.0 02:56:12 53° SSW 02:57:31 86° ESE 03:02:53 10° NNE
Cosmos 1153 Rocket 4.4 02:56:58 23° S 03:00:57 85° E 03:07:14 10° N
Cosmos 1833 Rocket 2.6 03:01:05 55° WSW 03:02:14 71° WNW 03:07:56 10° NNE
CENTAUR R/B 3.8 02:58:52 13° S 03:03:27 36° ESE 03:09:36 10° NE
FENGYUN 3A 3.5 02:58:18 10° N 03:03:40 71° WNW 03:05:03 49° SW
Cosmos 44 Rocket 3.9 03:02:24 33° S 03:04:04 49° ESE 03:08:37 10° NE
Cosmos 1447 Rocket 4.4 03:01:53 10° NNW 03:08:08 65° W 03:14:17 10° S
Cosmos 1484 Rocket 4.2 03:06:51 10° NNE 03:10:37 39° E 03:14:20 10° SSE
Cosmos 1371 Rocket 3.9 03:10:55 49° SW 03:12:16 70° WNW 03:17:31 10° NNE
Atlas Centaur 2 4.4 03:12:00 18° SSW 03:12:53 18° SSW 03:17:51 10° SSE
ATLAS CENTAUR R/B 1.7 03:12:30 51° SW 03:13:45 90° SE 03:18:39 10° NE
Meteor 1-4 Rocket 3.4 03:10:13 10° NNW 03:12:35 38° NNW 03:12:35 38° NNW
USA 307 2.7 03:13:49 67° WNW 03:14:11 74° NNW 03:18:21 10° ENE
METEOR-M 4.2 03:11:27 10° NNE 03:16:51 79° ESE 03:21:30 14° S
SL-19 R/B 4.4 03:10:44 10° NNE 03:16:58 74° WNW 03:20:31 26° SSW
Resurs 1-4 Rocket 4.2 03:17:19 10° NNW 03:18:30 11° NW 03:18:30 11° NW
ERBS 3.7 03:21:13 24° N 03:21:13 24° N 03:23:10 10° NE
IRS-P3 4.3 03:15:22 10° NNE 03:20:44 73° ESE 03:26:04 10° S
Cosmos 2082 Rocket 2.3 03:19:36 21° SSW 03:23:27 74° ESE 03:29:05 10° NNE
CZ-2D R/B 4.2 03:22:59 10° NNW 03:24:14 11° NW 03:24:14 11° NW
USA 306 3.0 03:24:27 48° WNW 03:25:17 60° NNW 03:29:22 10° ENE
Cosmos 1697 Rocket 3.5 03:21:14 10° NW 03:27:50 30° SW 03:31:21 10° S
NOSS 3-2 (A) 4.0 03:24:48 14° SSW 03:29:19 51° ESE 03:35:24 10° NE
CZ-2C R/B 2.5 03:24:53 10° S 03:30:07 78° WSW 03:35:31 10° NNW
ALOS 2.6 03:25:57 10° N 03:30:24 45° WNW 03:31:32 38° WSW
Cosmos 2360 Rocket 4.3 03:26:56 10° NNW 03:31:37 26° NE 03:36:17 10° E
IDEFIX/ARIANE 42P 4.4 03:29:45 10° NNW 03:32:34 15° NW 03:32:34 15° NW
Meteor 1-11 Rocket 3.9 03:27:03 10° NNW 03:32:50 52° W 03:38:33 10° SSW
BREEZE-M DEB (TANK) 1.7 03:32:42 70° W 03:32:57 89° SSW 03:35:16 10° ESE
Cosmos 1461 4.2 03:30:25 13° S 03:33:38 36° ESE 03:37:27 10° NE
Cosmos 1850 Rocket 4.1 03:28:26 10° NNW 03:33:48 79° ENE 03:39:08 10° SSE
Cosmos 1605 Rocket 4.5 03:33:50 30° WSW 03:35:41 36° WNW 03:41:18 10° N
Cosmos 1743 3.3 03:32:23 10° NNW 03:35:14 36° WNW 03:35:14 36° WNW
CZ-2C R/B 2.5 03:31:36 10° N 03:36:28 52° WNW 03:38:51 27° SW
Cosmos 1459 Rocket 4.0 03:30:27 10° S 03:36:49 89° WNW 03:43:15 10° N
CBERS-1 4.5 03:32:15 10° N 03:37:01 41° WNW 03:38:49 30° WSW
COSMOS 2406 3.1 03:34:02 25° SW 03:37:26 71° WNW 03:43:07 10° NNE
Cosmos 1954 Rocket 4.4 03:33:45 10° NW 03:38:32 37° WSW 03:43:20 10° S
Cosmos 2346 Rocket 4.3 03:33:58 10° NNW 03:40:00 68° W 03:46:03 10° S
PAYLOAD A 4.1 03:35:48 10° N 03:40:27 50° WNW 03:43:09 24° SW
Cosmos 2056 Rocket 3.9 03:40:20 30° WSW 03:42:17 43° WNW 03:47:11 10° NNE
Cosmos 1441 Rocket 3.4 03:42:10 39° WSW 03:42:58 46° WNW 03:46:36 10° N
DELTA 2 DEB (DPAF) 4.0 03:39:50 10° S 03:44:12 64° WSW 03:48:35 10° NNW
Cosmos 1633 Rocket 3.9 03:42:08 10° NNW 03:45:35 28° W 03:45:35 28° W
Tsikada Rocket 4.5 03:41:14 10° N 03:47:33 65° ENE 03:53:43 10° SSE
USA 308 3.2 03:46:41 30° W 03:48:27 54° NNW 03:52:30 10° ENE
Cosmos 1420 Rocket 4.4 03:46:30 26° WSW 03:49:05 45° WNW 03:54:05 10° NNE
X-37B 1.2 03:50:05 32° SSW 03:50:23 33° S 03:53:02 10° ESE
Cosmos 1802 Rocket 4.0 03:46:59 10° S 03:53:23 86° W 03:59:44 10° N
CZ-2C R/B 3.7 03:47:50 10° NNE 03:53:37 67° ESE 03:59:07 10° S
YAOGAN 6 2.5 03:50:57 10° N 03:54:36 81° WNW 03:58:12 10° SSW
H-2A R/B 3.2 03:55:13 10° NNE 03:58:50 60° E 04:02:28 10° S
Cosmos 1933 Rocket 3.6 03:54:41 10° NNW 03:59:03 57° W 04:03:21 10° S
Meteor 1-19 Rocket 4.1 03:53:48 10° SSW 03:59:15 84° WNW 04:04:42 10° N
Cosmos 2322 Rocket 3.1 03:53:48 10° NNW 03:59:22 51° NE 04:04:53 10° SE
Cosmos 1725 Rocket 4.1 03:53:06 10° S 03:59:24 84° E 04:05:47 10° N
CZ-2C R/B 3.8 03:57:07 10° NNE 04:00:47 48° E 04:04:31 10° S
Lacrosse 4 Rocket 1.7 03:56:58 10° NNW 04:01:20 74° NE 04:05:45 10° SE
Cosmos 1328 Rocket 4.5 04:00:53 22° WSW 04:02:36 29° WNW 04:06:28 10° N
Cosmos 1536 3.9 03:59:33 10° NW 04:02:48 23° W 04:03:44 22° WSW
Cosmos 1741 Rocket 3.9 03:58:23 10° NNW 04:03:35 64° WSW 04:08:43 10° S
PSLV R/B 4.2 04:00:05 10° NNE 04:04:23 59° E 04:08:36 10° S
Spot 4 Rocket 4.1 03:59:53 10° NNE 04:05:04 85° ESE 04:10:12 10° SSW
Helios 1B rocket 3.2 04:02:04 10° N 04:05:41 31° WNW 04:07:56 18° WSW
Cosmos 1346 Rocket 4.1 04:06:06 20° W 04:06:53 21° WNW 04:09:59 10° NNW
Cosmos 1980 Rocket 2.8 04:02:10 10° NW 04:07:06 33° WSW 04:12:00 10° SSW
Cosmos 2173 Rocket 4.1 04:04:15 10° SSW 04:10:11 51° WNW 04:16:08 10° N
Meteor 2-9 Rocket 4.3 04:06:57 10° NNW 04:12:33 53° W 04:17:58 10° S
USA 234 4.2 04:06:32 10° ENE 04:12:48 47° SE 04:19:03 10° SSW
GP-B 3.1 04:09:28 10° SSW 04:13:50 57° W 04:18:13 10° N
USA 305 3.6 04:12:19 16° WNW 04:15:16 43° N 04:19:13 10° ENE
SKYMED 2 3.9 04:13:36 10° SSE 04:17:55 71° ENE 04:22:15 10° N
ARIANE 5 R/B 3.0 04:13:30 10° N 04:18:11 40° WNW 04:22:48 10° SW
Cosmos 1331 Rocket 4.0 04:13:46 10° SSW 04:18:55 86° ESE 04:24:08 10° NNE
CZ-2D R/B 4.0 04:19:26 10° N 04:23:04 35° WNW 04:26:43 10° SW
SL-08 R/B 3.9 04:20:43 10° SSW 04:24:57 34° W 04:29:16 10° NNW
Cosmos 2278 4.0 04:20:04 10° NW 04:25:21 42° WSW 04:30:38 10° S
SL-24 R/B - RUBIN 2 3.7 04:21:18 10° SSW 04:25:43 78° SE 04:30:05 10° NE
Cosmos 1515 Rocket 4.4 04:22:53 10° SW 04:26:50 31° WNW 04:30:49 10° N
SL-16 R/B 2.2 04:22:12 10° NNW 04:27:54 78° WSW 04:33:33 10° SSE
ATLAS 5 CENTAUR R/B 4.1 04:26:09 10° NNW 04:29:56 22° NNE 04:34:18 10° ENE
NOAA 11 4.2 04:26:42 10° NNE 04:32:13 85° WNW 04:37:41 10° SSW
Cosmos 1110 Rocket 4.0 04:27:04 10° SSW 04:32:15 69° WNW 04:37:27 10° NNE
BREEZE M DEB (TANK) 3.4 04:21:25 10° WSW 04:33:06 76° SSE 04:36:34 10° ENE
MINOTAUR 4 R/B 4.0 04:30:21 10° S 04:33:47 58° WSW 04:37:16 10° NNW
Cosmos 2228 Rocket 3.1 04:29:55 10° SSW 04:34:25 80° W 04:38:53 10° N
Cosmos 1452 Rocket 3.8 04:29:51 10° SW 04:34:55 47° WNW 04:40:03 10° NNE
Cosmos 1733 3.5 04:36:30 10° N 04:40:14 71° E 04:43:58 10° SSE
USA 290 3.7 04:37:12 10° N 04:40:16 40° ENE 04:43:18 10° SE
Envisat 3.4 04:35:57 10° N 04:40:43 42° WNW 04:45:28 10° SW
CZ-4C R/B 4.1 04:37:59 10° SSW 04:41:51 35° W 04:45:52 10° NNW
Meteor 2-19 Rocket 4.5 04:37:30 10° NNW 04:43:38 67° W 04:49:43 10° S
Cosmos 1484 Rocket 4.1 04:41:35 10° NNW 04:44:40 22° WNW 04:47:45 10° WSW
Meteor 1-18 Rocket 4.3 04:39:55 10° SSW 04:45:32 60° WNW 04:51:07 10° N
Cosmos 44 Rocket 4.1 04:41:31 10° WSW 04:45:45 32° NW 04:50:01 10° NNE
Okean 1 4.5 04:43:07 10° SW 04:46:26 24° WNW 04:49:44 10° NNW
Cosmos 1378 4.2 04:43:47 10° SW 04:46:48 24° WNW 04:49:50 10° NNW
Cosmos 1833 Rocket 4.3 04:43:26 10° W 04:47:14 18° NW 04:51:04 10° N
Meteor 1-29 4.0 04:46:36 10° NNW 04:49:18 24° WNW 04:51:59 10° WSW
BREEZE-M DEB (TANK) 4.4 04:34:28 10° WSW 04:50:29 87° SSE 04:54:33 10° E
Cosmos 968 Rocket 3.5 04:46:23 10° NNW 04:51:32 68° WSW 04:56:37 10° S
Cosmos 2016 Rocket 4.5 04:47:10 10° SW 04:53:06 40° WNW 04:59:06 10° N
